Location: Aranbee
(34.0885°N, 118.2342°W)
Time: 08:39:36
(UTC+00:00)

Courier 1B Rocket - Pass Details

Date: 29 November 2020
Orbit: 920 x 1202 km, 28.2° (Epoch: 27 January)

Event Time Altitude Azimuth Distance (km) Brightness Sun altitude
Rises 14:35:45 0° 256° (WSW) 4,093 7.8 -1.5°
Reaches altitude 10° 14:38:40 10° 252° (WSW) 3,127 7.2 -0.9°
Maximum altitude 14:46:16 56° 177° (S) 1,378 6.1 0.5°
Drops below altitude 10° 14:53:35 10° 101° (E) 3,016 9.3 1.8°
Sets 14:56:21 0° 97° (E) 3,939 9.7 2.3°
